www.pogodaiklimat.ru

Погода и климат >> Архив погоды >> Великобритания >> Шап


ПОГОДА в Шапе

  • Прогноз погоды в Шапе
  • Монитор погоды в Шапе

АРХИВ ПОГОДЫ в Шапе

Время (UTC), дата Ветер
(напр.,м/с)
 
Видим.   Явления Облачность Т
(С)
Тd
(С)
f
(%)
Тe
(С)
Тes
(С)
Комфортность P
(гПа)
Po
(гПа)
Тmin
(С)
Tmax
(С)
R
(мм)
R24
(мм)
S
(см)
10 12.06 С 7
{13}
35 км н/о +9.4 +8.3 93 +5 +5 1014.0 983.6
11 12.06 С 9
{13}
>70 км н/о +10.3 +8.2 87 +6 +6 1013.3 983.0
12 12.06 С 7 65 км н/о +10.3 +8.4 88 +7 +7 1012.8 982.6
13 12.06 С 6 >70 км н/о +10.8 +9.1 89 +7 +7 1012.1 981.9
14 12.06 С 6 >70 км н/о +12.6 +10.1 85 +10 +10 1011.3 981.3
15 12.06 С 7 35 км н/о +11.2 +9.4 89 +8 +8 1011.2 981.0
16 12.06 СЗ 6 >70 км н/о +10.4 +9.4 94 +7 +7 1010.9 980.7
17 12.06 С 5 6000 м н/о +10.5 +9.6 94 +7 +7 1010.6 980.4
18 12.06 СЗ 4 17 км н/о +10.2 +9.6 96 +7 +7 1010.3 980.1 +12.7 0.2
19 12.06 С 6 5000 м н/о +10.4 +9.9 97 +7 +7 1010.0 979.8
20 12.06 С 5 35 км н/о +10.4 +10.0 97 +7 +7 1009.5 979.4
21 12.06 С 6 >70 км н/о +10.2 +9.7 97 +7 +7 1009.1 978.9
22 12.06 СЗ 6 >70 км н/о +10.3 +9.4 94 +7 +7 1008.4 978.3
23 12.06 С 5 >70 км н/о +10.1 +9.4 95 +7 +7 1007.8 977.7
00 13.06 С 6 30 км н/о +10.1 +9.1 94 +6 +6 1007.6 977.5 5
01 13.06 С 6 16 км н/о +10.2 +8.8 91 +7 +7 1006.8 976.7
02 13.06 С 6 7000 м н/о +9.0 +8.2 95 +5 +5 1006.3 976.0
03 13.06 С 7 4000 м н/о +8.4 +7.9 97 +4 +4 1005.8 975.5
04 13.06 С 7 23 км н/о +8.3 +7.7 96 +4 +4 1005.2 974.9
05 13.06 С 6 7000 м н/о +8.0 +7.4 96 +4 +4 1005.0 974.8
06 13.06 С 6 13 км н/о +7.8 +7.2 96 +4 +4 1004.9 974.6 +7.8 13
07 13.06 С 6 10 км н/о +7.7 +6.9 95 +3 +3 1004.8 974.5
08 13.06 С 6 17 км н/о +7.6 +6.9 95 +3 +3 1004.9 974.6
09 13.06 С 6 14 км н/о +7.6 +6.9 95 +3 +3 1004.7 974.3
10 13.06 СЗ 6 12 км н/о +7.9 +7.1 95 +4 +4 1004.1 973.8
11 13.06 С 6 45 км н/о +8.3 +7.1 92 +4 +4 1004.0 973.8
12 13.06 СЗ 5 9000 м н/о +8.2 +7.2 93 +5 +5 1003.7 973.5 3
13 13.06 С 5 15 км н/о +8.6 +7.2 91 +5 +5 1003.5 973.3
14 13.06 СЗ 4 17 км н/о +8.8 +7.5 92 +6 +6 1003.4 973.3
15 13.06 СЗ 3 19 км н/о +8.5 +7.4 93 +6 +6 1003.3 973.2
16 13.06 СЗ 2 >70 км н/о +9.1 +6.7 85 +7 +7 1003.2 973.1
17 13.06 СЗ 2 >70 км н/о +9.1 +7.2 88 +8 +8 1003.1 973.0
18 13.06 С 3 >70 км н/о +8.7 +6.7 87 +6 +6 1003.3 973.1 +9.3 4
19 13.06 Ю 1 10 км н/о +8.1 +6.8 91 +8 +8 1003.6 973.3
20 13.06 В 1 30 км н/о +7.9 +7.3 96 +8 +8 1003.8 973.5
21 13.06 Ю 3 50 км н/о +8.2 +7.6 96 +5 +5 1004.3 974.1
22 13.06 ЮЗ 5 70 км н/о +8.0 +6.5 90 +4 +4 1004.6 974.4
23 13.06 ЮЗ 2 4900 м н/о +7.5 +6.6 94 +5 +5 1004.8 974.5
00 14.06 ЮЗ 3 45 км н/о +7.7 +6.3 91 +5 +5 1004.9 974.6 0.4
01 14.06 Ю 4 35 км н/о +7.6 +6.3 91 +4 +4 1004.6 974.3
02 14.06 ЮЗ 4 35 км н/о +7.7 +6.2 90 +4 +4 1004.5 974.2
03 14.06 ЮЗ 3 35 км н/о +6.3 +4.9 91 +3 +3 1004.8 974.4
04 14.06 ЮЗ 2 40 км н/о +4.1 +3.0 93 +2 +2 1005.3 974.6
05 14.06 штиль 0 13 км н/о +4.7 +4.4 98 +3 +3 1005.7 975.0
06 14.06 Ю 3 13 км н/о +7.4 +7.3 99 +5 +5 1005.4 975.1 +3.5 0.4
07 14.06 Ю 2 3400 м н/о +7.9 +7.3 96 +6 +6 1005.3 975.0
08 14.06 ЮВ 3 5000 м н/о +7.6 +6.8 95 +5 +5 1005.8 975.4
09 14.06 Ю 4 21 км н/о +8.2 +7.3 94 +5 +5 1006.1 975.8
10 14.06 Ю 3 55 км н/о +9.4 +7.2 86 +7 +7 1006.3 976.1
11 14.06 ЮЗ 4 70 км н/о +10.6 +7.5 81 +8 +8 1006.6 976.5
12 14.06 ЮЗ 4 7000 м н/о +10.1 +6.8 80 +7 +7 1006.9 976.8 3
13 14.06 ЮЗ 6 >70 км н/о +11.9 +7.1 72 +9 +9 1006.9 976.9
14 14.06 Ю 7 >70 км н/о +12.6 +6.9 68 +10 +10 1007.2 977.4
15 14.06 ЮЗ 6 >70 км н/о +12.3 +5.9 65 +10 +10 1007.7 977.8
16 14.06 Ю 6 >70 км н/о +13.4 +7.5 67 +11 +11 1007.6 977.8
17 14.06 Ю 4 >70 км н/о +12.4 +7.1 70 +11 +11 1007.9 978.0
18 14.06 Ю 3 >70 км н/о +13.0 +7.8 71 +12 +12 1007.9 978.1 +13.4 3
19 14.06 Ю 3 70 км н/о +13.1 +8.1 72 +12 +12 1007.9 978.1
20 14.06 Ю 3 70 км н/о +11.6 +7.9 78 +10 +10 1008.3 978.3
21 14.06 Ю 2 65 км н/о +10.6 +8.5 87 +9 +9 1008.8 978.6
22 14.06 Ю 4 10 км н/о +10.7 +9.4 92 +8 +8 1009.0 978.9
23 14.06 Ю 2 45 км н/о +10.3 +9.3 94 +9 +9 1009.2 979.0
00 15.06 Ю 3 30 км н/о +10.5 +9.6 94 +9 +9 1009.0 978.9 0.2
01 15.06 ЮВ 2 20 км н/о +9.7 +9.1 96 +8 +8 1009.3 979.1
02 15.06 Ю 4 17 км н/о +10.2 +8.8 91 +7 +7 1009.2 979.0
03 15.06 Ю 6 25 км н/о +10.2 +8.4 89 +7 +7 1008.9 978.8
04 15.06 Ю 4 20 км н/о +9.9 +8.6 92 +7 +7 1008.7 978.5
05 15.06 Ю 3 35 км н/о +10.0 +8.4 90 +8 +8 1008.6 978.4
06 15.06 Ю 3 45 км н/о +11.0 +8.6 85 +9 +9 1008.3 978.3 +8.8 0.2
07 15.06 Ю 6 40 км н/о +11.7 +9.1 84 +9 +9 1008.4 978.4
08 15.06 Ю 6 50 км н/о +12.3 +9.2 81 +10 +10 1008.4 978.5
09 15.06 Ю 7 55 км н/о +12.1 +7.9 75 +9 +9 1008.7 978.7
10 15.06 Ю 4 4200 м н/о +11.0 +9.6 91 +8 +8 1009.0 979.0
11 15.06 Ю 6 55 км н/о +12.1 +9.7 85 +9 +9 1009.0 979.0
12 15.06 Ю 5 60 км н/о +12.8 +10.0 83 +11 +11 1009.0 979.1 0.6
13 15.06 Ю 6 65 км н/о +13.5 +10.9 84 +11 +11 1008.7 978.9
14 15.06 ЮЗ 7 65 км н/о +13.4 +8.7 73 +11 +11 1009.2 979.4
15 15.06 Ю 5 8000 м н/о +11.4 +8.4 82 +9 +9 1009.9 979.8
16 15.06 Ю 3 >70 км н/о +12.0 +7.8 75 +10 +10 1009.8 979.9
17 15.06 Ю 4 60 км н/о +11.9 +9.0 82 +10 +10 1009.6 979.6
18 15.06 ЮЗ 5 >70 км н/о +12.6 +6.5 66 +10 +10 1009.5 979.6 +14.3 3
19 15.06 ЮЗ 6 >70 км н/о +11.2 +5.4 67 +8 +8 1009.8 979.7
20 15.06 ЮЗ 3 >70 км н/о +9.8 +5.8 76 +8 +8 1010.5 980.2
21 15.06 ЮЗ 2 50 км н/о +5.8 +3.7 86 +4 +4 1011.3 980.6
22 15.06 ЮЗ 2 45 км н/о +4.1 +3.4 95 +2 +2 1011.8 980.9
23 15.06 ЮЗ 2 45 км н/о +6.0 +5.2 95 +3 +3 1011.7 981.0
00 16.06 ЮЗ 2 35 км н/о +5.5 +4.9 96 +3 +3 1011.7 981.0
01 16.06 ЮВ 1 40 км н/о +3.9 +2.8 93 +2 +2 1012.1 981.2
02 16.06 ЮЗ 1 40 км н/о +3.8 +3.4 97 +2 +2 1011.8 980.9
03 16.06 ЮВ 5 30 км н/о +7.0 +6.3 95 +3 +3 1011.3 980.7
04 16.06 Ю 4 8000 м н/о +7.3 +6.5 95 +4 +4 1011.3 980.7
05 16.06 ЮЗ 2 20 км н/о +7.6 +6.8 95 +5 +5 1011.5 980.9
06 16.06 Ю 5 16 км н/о +8.7 +7.6 93 +5 +5 1011.4 981.0 +3.4 1
07 16.06 Ю 5 24 км н/о +10.0 +9.1 94 +7 +7 1011.5 981.3
08 16.06 Ю 6 50 км н/о +10.5 +8.1 85 +7 +7 1011.6 981.4
09 16.06 Ю 6 45 км н/о +10.8 +8.2 84 +8 +8 1011.6 981.4
10 16.06 Ю 5 4900 м н/о +9.7 +8.7 93 +7 +7 1012.1 981.8
11 16.06 Ю 4 30 км н/о +10.9 +9.2 89 +9 +9 1011.7 981.5
12 16.06 Ю 8 >70 км н/о +14.2 +8.4 68 +12 +12 1011.2 981.4 1
13 16.06 ЮЗ 6 >70 км н/о +15.0 +8.4 65 +13 +13 1011.0 981.2
14 16.06 ЮЗ 6 >70 км н/о +14.4 +8.6 68 +13 +13 1010.8 981.0
15 16.06 ЮЗ 4 35 км н/о +12.4 +10.4 88 +10 +10 1011.3 981.3
16 16.06 ЮЗ 9
{15}
>70 км н/о +14.6 +10.0 74 +12 +12 1010.9 981.1
17 16.06 ЮЗ 8
{14}
>70 км н/о +13.3 +7.7 69 +11 +11 1011.1 981.2
18 16.06 ЮЗ 7 55 км н/о +13.9 +9.0 72 +12 +12 1010.5 980.6 +15.6 4
19 16.06 Ю 6 3100 м н/о +11.1 +10.1 94 +8 +8 1010.8 980.7
20 16.06 Ю 5 1100 м н/о +11.5 +10.8 95 +9 +9 1010.2 980.2
21 16.06 ЮЗ 10
{15}
700 м н/о +12.5 +11.4 93 +9 +9 1009.7 979.7
22 16.06 Ю 12-17
{17}
1900 м н/о +12.1 +11.3 95 +8 +8 1009.5 979.5
23 16.06 ЮЗ 13-20
{20}
2500 м н/о +12.3 +11.1 92 +8 +8 1009.7 979.7
00 17.06 ЮЗ 12-19
{19}
4700 м н/о +12.1 +10.8 92 +8 +8 1009.7 979.7 15
01 17.06 ЮЗ 12-17
{19}
60 км н/о +11.9 +10.2 89 +8 +8 1009.9 979.9
02 17.06 ЮЗ 12-17
{19}
50 км н/о +11.4 +9.1 86 +7 +7 1010.0 979.9
03 17.06 ЮЗ 9
{16}
35 км н/о +11.2 +9.5 89 +7 +7 1010.3 980.2
04 17.06 ЮЗ 9
{14}
35 км н/о +10.9 +9.1 89 +7 +7 1010.5 980.3
05 17.06 ЮЗ 9
{14}
35 км н/о +11.0 +9.0 87 +7 +7 1010.6 980.5
06 17.06 ЮЗ 9
{14}
35 км н/о +11.2 +9.3 88 +7 +7 1011.1 981.0 +10.8 15
07 17.06 ЮЗ 8
{15}
40 км н/о +11.5 +9.0 85 +8 +8 1011.4 981.3
08 17.06 ЮЗ 9
{15}
35 км н/о +11.6 +8.9 83 +8 +8 1011.3 981.3
09 17.06 ЮЗ 10
{15}
8000 м н/о +11.7 +10.1 90 +8 +8 1011.4 981.4
10 17.06 ЮЗ 10
{16}
60 км н/о +13.0 +9.9 81 +10 +10 1011.4 981.5
11 17.06 ЮЗ 11
{16}
65 км н/о +14.7 +10.4 75 +12 +12 1011.4 981.7
12 17.06 ЮЗ 12
{19}
60 км н/о +13.4 +9.0 75 +10 +10 1012.0 982.1 0.4
13 17.06 ЮЗ 12
{18}
60 км н/о +14.2 +9.8 75 +11 +11 1011.9 982.1
14 17.06 ЮЗ 11
{17}
55 км н/о +14.0 +9.4 74 +11 +11 1012.1 982.2
15 17.06 ЮЗ 12-17
{17}
70 км н/о +14.1 +9.2 72 +11 +11 1011.9 982.1
16 17.06 ЮЗ 10
{17}
>70 км н/о +14.7 +8.6 67 +12 +12 1011.6 981.8
17 17.06 ЮЗ 10-16
{16}
65 км н/о +14.8 +8.8 67 +12 +12 1012.1 982.4
18 17.06 ЮЗ 8
{15}
60 км н/о +14.2 +8.4 68 +12 +12 1012.6 982.8 +15.2 0.4
19 17.06 ЮЗ 5 55 км н/о +13.4 +8.3 71 +12 +12 1012.8 982.8
20 17.06 ЮЗ 4 50 км н/о +11.6 +7.9 78 +9 +9 1013.1 982.9
21 17.06 ЮЗ 5 40 км н/о +11.3 +8.4 82 +9 +9 1013.5 983.3
22 17.06 Ю 5 30 км н/о +9.9 +8.0 88 +7 +7 1013.7 983.3
23 17.06 Ю 5 24 км н/о +10.9 +9.3 90 +8 +8 1013.8 983.5
00 18.06 ЮЗ 5 50 км н/о +11.1 +9.8 92 +8 +8 1013.6 983.4
01 18.06 ЮЗ 6 24 км н/о +11.2 +9.6 90 +8 +8 1013.4 983.3
02 18.06 Ю 5 22 км н/о +10.9 +9.4 90 +8 +8 1013.2 983.0
03 18.06 Ю 4 15 км н/о +10.1 +8.8 92 +8 +8 1013.2 982.9
04 18.06 Ю 4 10 км н/о +10.0 +9.1 94 +7 +7 1012.9 982.6
05 18.06 Ю 4 3700 м н/о +9.8 +9.3 97 +7 +7 1012.9 982.6
06 18.06 Ю 5 19 км н/о +10.3 +9.8 97 +7 +7 1012.9 982.7 +9.8 2
07 18.06 ЮЗ 5 24 км н/о +11.2 +9.8 91 +8 +8 1013.0 982.8
08 18.06 ЮЗ 5 30 км н/о +12.4 +9.8 84 +10 +10 1013.0 983.0
09 18.06 ЮЗ 5 35 км н/о +13.1 +9.8 80 +11 +11 1012.9 982.9
10 18.06 ЮЗ 6 50 км н/о +15.0 +10.4 74 +13 +13 1012.4 982.6
14 18.06 ЮЗ 5 55 км н/о +15.2 +8.7 65 +14 +14 1012.4 982.6
15 18.06 ЮЗ 7 >70 км н/о +14.8 +7.3 61 +13 +13 1012.1 982.3
16 18.06 ЮЗ 5 >70 км н/о +16.0 +7.1 55 +15 +15 1011.9 982.2
17 18.06 ЮЗ 5 >70 км н/о +15.4 +6.8 56 +14 +14 1011.5 981.8
18 18.06 ЮЗ 5 >70 км н/о +14.6 +6.5 58 +13 +13 1011.4 981.6
19 18.06 Ю 3 >70 км н/о +13.8 +6.8 63 +13 +13 1011.4 981.6
20 18.06 Ю 3 65 км н/о +11.7 +8.4 80 +10 +10 1011.5 981.4
21 18.06 Ю 2 55 км н/о +10.4 +8.0 85 +9 +9 1011.6 981.4
22 18.06 З 1 60 км н/о +10.4 +7.9 84 +10 +10 1011.4 981.2
23 18.06 З 1 50 км н/о +10.2 +8.1 87 +11 +11 1011.2 981.0
00 19.06 ЮЗ 3 50 км н/о +11.2 +7.6 78 +10 +10 1010.7 980.6
01 19.06 СЗ 1 30 км н/о +10.4 +7.5 82 +11 +11 1010.3 980.1
02 19.06 Ю 2 55 км н/о +9.3 +7.5 89 +8 +8 1010.2 979.9
03 19.06 ЮЗ 1 >70 км н/о +9.2 +7.3 88 +10 +10 1009.7 979.4
04 19.06 штиль 0 29 км н/о +9.0 +7.8 92 +8 +8 1009.4 979.1
05 19.06 штиль 0 25 км н/о +9.1 +8.3 95 +8 +8 1009.2 978.9
06 19.06 штиль 0 24 км н/о +9.6 +8.7 94 +9 +9 1009.1 978.9 +8.9 0.6
07 19.06 В 1 15 км н/о +10.3 +9.4 94 +10 +10 1008.8 978.6
08 19.06 ЮВ 2 35 км н/о +11.2 +9.9 92 +10 +10 1008.3 978.3

 

Местоположение метеостанции Шап (Великобритания): широта 54.50 долгота -2.68 высота над уровнем моря 255 м.

В архиве по умолчанию представлена погода в Шапе за последнюю неделю. Архивные данные за месяц целиком и за предыдущие месяцы, начиная с января 2011 года, Вы можете получить, выбрав интересующий диапазон дат из раскрывающегося списка и нажав кнопку "Ввод!".


*Определитесь, кто Вы:
робот инопланетянин человек

Внимание! Время в таблицах - всемирное. Для получения местного времени необходимо прибавить поправку, которая равна 0 ч.

Смотрите также архив погоды в соседних городах и на ближайших метеорологических станциях:

Погода в Варкопе (Великобритания) (18 км)
Погода в Грэйт Дан Фелле (Великобритания) (25 км)
Погода в Кесвике (Великобритания) (34 км)
Погода в Карлайле (Великобритания) (51 км)
Погода на Острове Уолни (Великобритания) (56 км)
Погода на Мысе Сент-Бис (Великобритания) (59 км)
Погода в Спадедэме (Великобритания) (62 км)
Погода в Лееминге (Великобритания) (78 км)
Погода в Альбермарле (Великобритания) (78 км)
Погода в Блэкпуле (Великобритания) (84 км)

Пояснения к столбцам:

Ветер - указаны скорость ветра в м/с - средняя за 10 мин, порывы в срок и между сроками (в фигурных скобках) и направление, откуда дует ветер: С - северный, СВ - северо-восточный, В - восточный, ЮВ - юго-восточный, Ю - южный, ЮЗ - юго-западный, З - западный, СЗ - северо-западный.
Видимость - горизонтальная дальность видимости в метрах или километрах. При видимости от 1 до 10 км при отсутствии осадков обычно наблюдается дымка, при ухудшении видимости до 1 км и менее - туман. В сухую погоду видимость может ухудшаться дымом, пылью или мглою.
Явления - указаны атмосферные явления, наблюдавшиеся в срок или в последний час перед сроком; фигурными скобками обозначены явления, наблюдавшиеся между сроками (за 1-3 часа до срока); квадратными скобками обозначены град или гололедные отложения с указанием их диаметра в мм.
Облачность - указаны через наклонную черту общая и нижняя облачность в баллах и высота нижней границы облаков в метрах; квадратными скобками обозначены формы облаков: Ci - перистые, Cs - перисто-слоистые, Cc - перисто-кучевые, Ac - высококучевые, As - высокослоистые, Sc - слоисто-кучевые, Ns - слоисто-дождевые, Cu - кучевые, Cb - кучево-дождевые. Подробнее классификацию облаков см. в Атласе облаков (PDF).
T - Температура воздуха - температура, измеренная на высоте 2 м над землей.
Td - Температура точки росы - температура, при понижении до которой содержащийся в воздухе водяной пар достигнет насыщения.
f - Относительная влажность воздуха - влажноcть воздуха, измеренная на высоте 2 м над землей.
Te - Эффективная температура - температура, которую ощущает одетый по сезону человек в тени. Характеристика душности погоды. При расчете учитывается влияние влажности воздуха и скорости ветра на теплоощущения человека.
Tes - Эффективная температура на солнце - температура, которую ощущает человек, с поправкой на солнечный нагрев. Характеристика знойности погоды. Зависит от высоты солнца над горизонтом, облачности и скорости ветра. Ночью, в пасмурную погоду, а также при ветре 12 м/с и более поправка равна нулю.
P - Атмосферное давление - приведенное к уровню моря атмосферное давление.
Po - Атмосферное давление - измеренное на уровне метеостанции атмосферное давление.
Tmin - Минимальная температура - минимум температуры воздуха на высоте 2 м над землей.
Tmax - Максимальная температура - максимум температуры воздуха на высоте 2 м над землей.
R - Количество осадков - Количество выпавших осадков за период времени, мм. При наведении курсора мыши на число - период времени, за который выпало указанное количество осадков.
R24 - Количество осадков - Количество выпавших осадков за 24 часа, мм.
S - Снежный покров - Высота снежного покрова, см. При наведении курсора мыши на число - состояние снежного покрова и степень покрытия местности в баллах.